Hourly Data Report for June 19, 2018

OTTAWA INTL A
ONTARIO
Current Station Operator: NAVCAN

45°19'00.000" N
75°40'00.000" W
114.90 m
6106001
71628
YOW

Download Data

Hourly Data (June 2018)
Hourly Data Report for June 19, 2018
TIME
LST
Temp Definition
°C
Dew Point Definition
°C
Rel Hum Definition
%
Precip. Amount Definition
mm

Wind Dir Definition
10's deg

Wind Spd Definition
km/h
Visibility Definition
km
Stn Press Definition
kPa
Hmdx Definition


Wind Chill Definition


Weather Definition


00:00 17.2 14.2 82   32 26 24.1 99.62     LegendNANA
01:00 16.7 13.9 84   32 29 24.1 99.67     Clear
02:00 15.7 12.6 82   32 25 24.1 99.74     LegendNANA
03:00 14.3 10.0 75   32 30 24.1 99.87     LegendNANA
04:00 13.5 8.2 70   34 29 24.1 99.92     Mainly Clear
05:00 12.6 8.4 75   33 17 24.1 100.02     LegendNANA
06:00 13.8 8.8 72   33 23 24.1 100.08     LegendNANA
07:00 14.7 8.4 66   33 23 24.1 100.15     Clear
08:00 15.8 7.0 56   32 25 24.1 100.19     LegendNANA
09:00 17.0 7.5 53   31 22 24.1 100.20     LegendNANA
10:00 18.3 6.8 47   33 24 24.1 100.20     Clear
11:00 19.6 6.0 41   35 20 24.1 100.16     LegendNANA
12:00 21.1 6.8 39   36 21 24.1 100.10     LegendNANA
13:00 22.2 6.4 36   34 20 24.1 100.04     Clear
14:00 23.3 6.0 32   34 24 24.1 100.03     LegendNANA
15:00 24.0 6.7 32   32 24 24.1 100.00     LegendNANA
16:00 23.9 6.5 32   35 23 24.1 99.97     Clear
17:00 23.9 7.5 34   30 20 24.1 99.96     LegendNANA
18:00 23.4 7.6 36   30 12 24.1 99.93     LegendNANA
19:00 22.0 9.2 43   29 10 24.1 99.97     Clear
20:00 19.9 9.0 49   29 8 24.1 99.94     LegendNANA
21:00 18.0 9.0 55   26 7 24.1 99.99     LegendNANA
22:00 16.1 9.3 64   24 9 24.1 99.97     Mainly Clear
23:00 13.4 9.2 75   22 4 24.1 99.97     LegendNANA

Notes on Data Quality.

Legend

  • E = Estimated
  • M = Missing
  • NA = Not Available*
  • [empty] = Indicates an unobserved value
Date modified: